Location: ????????
(55.0559°N, 39.1270°E)
Time: 09:05:25
(UTC+00:00)

Cosmos 1980 Rocket - Pass Details

Date: 15 November 2025
Orbit: 829 x 848 km, 71.0° (Epoch: 14 December)

Event Time Altitude Azimuth Distance (km) Brightness Sun altitude
Exits shadow 03:20:15 - 329° (NNW) 2,697 4.4 -13.4°
Reaches altitude 10° 03:21:03 10° 334° (NNW) 2,471 4.3 -13.3°
Maximum altitude 03:25:16 21° 23° (NNE) 1,821 4.0 -12.7°
Drops below altitude 10° 03:29:26 10° 71° (ENE) 2,457 5.5 -12.1°
Sets 03:32:31 0° 87° (E) 3,385 6.9 -11.7°
